Regional Weather Roundup
Issued by NWS

Home | Current Version | Previous Version | Graphics & Text | Print | Product List | Glossary On
Versions: 1 2 3 4 5 6 7 8 9 10 11 12 13 14 15 16 17 18 19 20 21 22 23 24 25 26 27 28 29 30 31 32 33 34 35 36 37 38 39 40 41 42 43 44 45 46 47 48 49 50
000
ASUS43 KOAX 252010
RWRNE

WEATHER ROUNDUP FOR NEBRASKA
NATIONAL WEATHER SERVICE OMAHA NE
200 PM CST SUN JAN 25 2015

NOTES: SATELLITE DATA IS BEING USED TO AUGMENT CLOUD COVER ABOVE
       12000 FEET.
       "FAIR" INDICATES FEW OR NO CLOUDS BELOW 12,000 FEET WITH NO
       SIGNIFICANT WEATHER AND/OR OBSTRUCTIONS TO VISIBILITY.

  * THESE STATIONS DO NOT REPORT WEATHER SUCH AS RAIN...SNOW OR FOG.

NEZ001>004-019>022-054>056-252100-
NEBRASKA PANHANDLE

CITY           SKY/WX    TMP DP  RH WIND       PRES   REMARKS
SCOTTSBLUFF    CLOUDY    47  34  60 NW7       30.07F
ALLIANCE       CLOUDY    45  35  68 NW14      30.03F
CHADRON        CLOUDY    48  34  58 NW20      30.03F
KIMBALL        CLOUDY    51  30  45 NW17G24   30.08F
SIDNEY         CLOUDY    50  30  46 NW21G32   30.08F
$$

NEZ057>060-069>072-079>082-252100-
SOUTHWEST NEBRASKA

CITY           SKY/WX    TMP DP  RH WIND       PRES   REMARKS
NORTH PLATTE   SUNNY     49  23  36 NW16      30.05F
IMPERIAL       SUNNY     54  20  26 NW23G31   30.06F
LEXINGTON      MOSUNNY   46  29  51 N14       30.06F
MCCOOK         SUNNY     52  21  29 N16G29    30.07F
OGALLALA       SUNNY     54  21  28 N17G23    30.05F
$$

NEZ005>010-023>029-035>040-094-252100-
NORTH CENTRAL NEBRASKA

CITY           SKY/WX    TMP DP  RH WIND       PRES   REMARKS
VALENTINE      MOSUNNY   42  29  59 NW13      30.04F
AINSWORTH      CLOUDY    38  29  68 NW12      30.04F WCI  31
BROKEN BOW     CLOUDY    43  29  57 N15       30.05F
O`NEILL        CLOUDY    39  36  89 NW8       30.02F WCI  34
ORD            CLOUDY    40  28  62 NW16      30.04F WCI  31
THEDFORD       SUNNY     46  29  50 NW13      30.04F
$$

NEZ041-046>049-061>064-073>077-083>087-252100-
SOUTH CENTRAL NEBRASKA

CITY           SKY/WX    TMP DP  RH WIND       PRES   REMARKS
GRAND ISLAND   CLOUDY    40  33  76 N7        30.05S
AURORA         CLOUDY    40  32  73 N20       30.05S WCI  30
HASTINGS       CLOUDY    43  29  57 N21       30.04F
HEBRON         CLOUDY    43  29  57 N20       30.03S
HOLDREGE       PTSUNNY   46  26  45 N16G25    30.06S
KEARNEY *      PTSUNNY   45  27  49 N16       30.05F
YORK           CLOUDY    41  32  70 N17G24    30.03S
$$

NEZ011>018-030>034-042>045-252100-
NORTHEAST NEBRASKA

CITY           SKY/WX    TMP DP  RH WIND       PRES   REMARKS
NORFOLK        CLOUDY    39  32  76 NW14      30.01F WCI  31
ALBION         CLOUDY    38  32  78 N13       30.02F WCI  30
BLAIR          CLOUDY    40  32  71 N17G23    29.98S WCI  32
COLUMBUS *     CLOUDY    39  28  65 N14       30.04F WCI  31
FREMONT        CLOUDY    40  32  73 N8G16     30.02R WCI  35
TEKAMAH        CLOUDY    41  33  73 N15       30.01S
WAYNE          CLOUDY    35  33  90 NW10      30.03F WCI  27
$$

NEZ050>053-065>068-078-088>093-252100-
SOUTHEAST NEBRASKA

CITY           SKY/WX    TMP DP  RH WIND       PRES   REMARKS
LINCOLN        CLOUDY    39  31  72 N22       30.03R WCI  29
OMAHA EPPLEY   CLOUDY    41  32  70 N14       29.99R
BEATRICE       CLOUDY    39  32  74 N23       30.01S WCI  29
FALLS CITY     CLOUDY    39  33  79 N16G25    29.97R WCI  30
NEBRASKA CITY  CLOUDY    39  30  70 N18       29.98R WCI  30
PLATTSMOUTH    PTSUNNY   40  32  70 N14G22    29.97S WCI  33
$$

NEZ044-045-051>053-067-252100-
OMAHA AREA

CITY           SKY/WX    TMP DP  RH WIND       PRES   REMARKS
OMAHA EPPLEY   CLOUDY    41  32  70 N14       29.99R
BLAIR          CLOUDY    40  32  71 N17G23    29.98S WCI  32
FREMONT        CLOUDY    40  32  73 N8G16     30.02R WCI  35
MILLARD        CLOUDY    40  32  71 N12G17    30.00R WCI  34
OFFUTT AFB     PTSUNNY   43  32  65 N10G20    29.99R
PLATTSMOUTH    PTSUNNY   40  32  70 N14G22    29.97S WCI  33
WAHOO          CLOUDY    39  31  72 N16G23    30.02R WCI  30
$$


USA.gov is the U.S. government's official web portal to all federal, state and local government web resources and services.